Date String (YYYY-MM-DD hh:mm:ss) UTC,Instrument flags,Ambient pressure (hPa),Sample flow (lpm),Bypass flow (lpm),Sample temperature (°C),Ambient temperature (°C),ASC tube jacket temperature (°C),LED temperature (°C),Box temperature (°C),Sample RH (%),Span deviation,Mass concentration (μg/m³),Mass concentration (μg/m³),Mass concentration (μg/m³)
DateTimeUTC,F1_M11,P_M11,Q1_M11,Q2_M11,T1_M11,T2_M11,T3_M11,T4_M11,T5_M11,U1_M11,ZSPAN_M11,X0_M11,X2_M11,X1_M11
2023-03-06 15:00:00,,0824.4,5.00,0.00,22.3,20.7,00.0,31.0,24.0,09.5,0000.0,0004.16,0002.33,0001.73
2023-03-06 15:01:00,,0824.4,5.00,0.00,22.3,20.7,00.0,31.0,24.0,09.6,0000.0,0004.07,0002.32,0001.74
2023-03-06 15:02:00,,0824.4,5.00,0.00,22.2,20.7,00.0,31.0,24.0,09.4,0000.0,0003.90,0002.33,0001.77
2023-03-06 15:03:00,,0824.4,4.99,0.00,22.2,20.6,00.0,31.0,24.0,09.5,0000.0,0003.98,0002.38,0001.79
2023-03-06 15:04:00,,0824.5,5.00,0.00,22.2,21.2,00.0,31.0,24.0,09.5,0000.0,0003.98,0002.37,0001.78
2023-03-06 15:05:00,,0824.5,5.00,0.00,22.4,22.8,00.0,31.0,24.3,09.4,0000.0,0003.88,0002.37,0001.77
2023-03-06 15:06:00,,0824.4,4.99,0.00,22.5,23.7,00.0,31.1,24.6,09.5,0000.0,0005.05,0002.42,0001.78
2023-03-06 15:07:00,,0824.4,4.98,0.00,22.6,23.1,00.0,31.1,24.5,09.3,0000.0,0005.21,0002.49,0001.79
2023-03-06 15:08:00,,0824.4,5.00,0.00,22.6,22.6,00.0,31.1,24.4,09.3,0000.0,0005.33,0002.53,0001.79
2023-03-06 15:09:00,,0824.4,4.99,0.00,22.6,22.2,00.0,31.1,24.4,09.2,0000.0,0005.29,0002.56,0001.79
2023-03-06 15:10:00,,0824.4,5.02,0.00,22.6,21.8,00.0,31.2,24.3,09.1,0000.0,0005.23,0002.55,0001.79
2023-03-06 15:11:00,,0824.5,4.99,0.00,22.6,21.5,00.0,31.2,24.3,09.1,0000.0,0005.32,0002.57,0001.81
2023-03-06 15:12:00,,0824.5,4.99,0.00,22.5,21.3,00.0,31.2,24.3,09.2,0000.0,0005.45,0002.62,0001.82
2023-03-06 15:13:00,,0824.6,5.00,0.00,22.5,21.1,00.0,31.2,24.2,09.1,0000.0,0005.53,0002.64,0001.82
2023-03-06 15:14:00,,0824.6,5.00,0.00,22.5,21.0,00.0,31.2,24.2,09.1,0000.0,0005.48,0002.60,0001.81
2023-03-06 15:15:00,,0824.6,5.01,0.00,22.5,20.9,00.0,31.2,24.2,09.1,0000.0,0005.41,0002.59,0001.80
2023-03-06 15:16:00,,0824.5,5.01,0.00,22.5,20.8,00.0,31.2,24.2,09.2,0000.0,0005.37,0002.56,0001.80
2023-03-06 15:17:00,,0824.5,5.01,0.00,22.4,20.8,00.0,31.2,24.1,09.2,0000.0,0004.42,0002.53,0001.80
2023-03-06 15:18:00,,0824.6,4.99,0.00,22.4,20.7,00.0,31.2,24.1,09.2,0000.0,0004.33,0002.53,0001.79
2023-03-06 15:19:00,,0824.6,5.00,0.00,22.4,20.6,00.0,31.2,24.1,09.1,0000.0,0004.44,0002.52,0001.79
2023-03-06 15:20:00,,0824.6,4.99,0.00,22.3,20.5,00.0,31.1,24.0,09.2,0000.0,0004.54,0002.50,0001.80
2023-03-06 15:21:00,,0824.4,5.01,0.00,22.3,20.4,00.0,31.1,23.9,09.4,0000.0,0004.57,0002.54,0001.81
2023-03-06 15:22:00,,0824.5,4.99,0.00,22.3,20.4,00.0,31.1,23.9,09.3,0000.0,0004.63,0002.58,0001.81
2023-03-06 15:23:00,,0824.4,5.01,0.00,22.3,20.4,00.0,31.1,23.9,09.4,0000.0,0004.62,0002.58,0001.83
2023-03-06 15:24:00,,0824.5,5.01,0.00,22.3,20.4,00.0,31.1,23.9,09.5,0000.0,0004.58,0002.58,0001.83
2023-03-06 15:25:00,,0824.5,5.03,0.00,22.2,20.3,00.0,31.1,23.9,09.5,0000.0,0004.56,0002.62,0001.84
2023-03-06 15:26:00,,0824.5,4.99,0.00,22.2,20.3,00.0,31.0,23.8,09.6,0000.0,0004.59,0002.64,0001.87
2023-03-06 15:27:00,,0824.5,5.01,0.00,22.2,20.3,00.0,31.0,23.8,09.9,0000.0,0004.64,0002.68,0001.89
2023-03-06 15:28:00,,0824.5,5.01,0.00,22.2,20.3,00.0,31.0,23.8,10.0,0000.0,0004.59,0002.69,0001.92
2023-03-06 15:29:00,,0824.5,4.99,0.00,22.1,20.2,00.0,31.0,23.7,09.9,0000.0,0004.36,0002.64,0001.94
2023-03-06 15:30:00,,0824.6,5.01,0.00,22.1,20.2,00.0,31.0,23.7,10.0,0000.0,0004.36,0002.68,0001.95
2023-03-06 15:31:00,,0824.6,4.99,0.00,22.1,20.2,00.0,31.0,23.7,10.3,0000.0,0004.43,0002.77,0001.96
2023-03-06 15:32:00,,0824.8,5.00,0.00,22.1,20.5,00.0,30.9,23.8,10.1,0000.0,0004.54,0002.82,0001.98
2023-03-06 15:33:00,,0824.8,4.99,0.00,22.2,22.1,00.0,30.9,24.0,10.0,0000.0,0004.51,0002.83,0002.00
2023-03-06 15:34:00,,0824.7,5.00,0.00,22.3,23.4,00.0,31.0,24.3,09.9,0000.0,0004.43,0002.84,0002.02
2023-03-06 15:35:00,,0824.8,5.00,0.00,22.4,23.1,00.0,31.0,24.4,10.0,0000.0,0004.46,0002.85,0002.04
2023-03-06 15:36:00,,0824.8,5.00,0.00,22.4,22.6,00.0,31.0,24.3,09.9,0000.0,0004.52,0002.85,0002.04
2023-03-06 15:37:00,,0824.6,4.95,0.00,22.4,22.0,00.0,31.1,24.2,09.7,0000.0,0004.60,0002.87,0002.04
2023-03-06 15:38:00,,0824.6,5.00,0.00,22.4,21.6,00.0,31.1,24.2,09.6,0000.0,0005.33,0002.88,0002.04
2023-03-06 15:39:00,,0824.6,5.00,0.00,22.4,21.3,00.0,31.1,24.1,09.6,0000.0,0005.67,0002.83,0002.01
2023-03-06 15:40:00,,0824.5,5.00,0.00,22.4,21.1,00.0,31.1,24.1,09.7,0000.0,0005.82,0002.87,0002.01
2023-03-06 15:41:00,,0824.7,5.01,0.00,22.4,20.9,00.0,31.1,24.0,09.7,0000.0,0005.73,0002.83,0002.00
2023-03-06 15:42:00,,0824.6,5.01,0.00,22.3,20.7,00.0,31.1,23.9,09.6,0000.0,0005.51,0002.74,0001.98
2023-03-06 15:43:00,,0824.5,5.01,0.00,22.3,20.6,00.0,31.1,23.9,09.4,0000.0,0005.47,0002.68,0001.95
2023-03-06 15:44:00,,0824.4,5.01,0.00,22.2,20.5,00.0,31.1,23.8,09.4,0000.0,0005.91,0002.63,0001.93
2023-03-06 15:45:00,,0824.4,4.99,0.00,22.2,20.4,00.0,31.0,23.8,09.5,0000.0,0006.01,0002.62,0001.91
2023-03-06 15:46:00,,0824.6,5.02,0.00,22.2,20.3,00.0,31.0,23.8,09.8,0000.0,0006.13,0002.59,0001.91
2023-03-06 15:47:00,,0824.4,5.01,0.00,22.2,20.3,00.0,31.0,23.8,09.7,0000.0,0007.02,0002.57,0001.90
2023-03-06 15:48:00,,0824.5,4.99,0.00,22.1,20.2,00.0,31.0,23.7,09.6,0000.0,0006.84,0002.52,0001.90
2023-03-06 15:49:00,,0824.4,5.01,0.00,22.1,20.1,00.0,31.0,23.7,09.3,0000.0,0006.11,0002.45,0001.88
2023-03-06 15:50:00,,0824.4,5.01,0.00,22.0,20.0,00.0,30.9,23.6,09.5,0000.0,0006.18,0002.50,0001.88
2023-03-06 15:51:00,,0824.5,4.99,0.00,22.0,20.0,00.0,30.9,23.6,09.6,0000.0,0006.50,0002.49,0001.87
2023-03-06 15:52:00,,0824.7,5.01,0.00,22.0,20.0,00.0,30.9,23.5,09.5,0000.0,0006.63,0002.54,0001.88
2023-03-06 15:53:00,,0824.6,5.01,0.00,21.9,19.9,00.0,30.9,23.5,09.7,0000.0,0008.11,0002.70,0001.89
2023-03-06 15:54:00,,0824.5,5.00,0.00,21.9,19.9,00.0,30.8,23.5,09.6,0000.0,0008.14,0002.70,0001.90
2023-03-06 15:55:00,,0824.5,4.99,0.00,21.9,21.1,00.0,30.8,23.7,09.7,0000.0,0007.94,0002.73,0001.91
2023-03-06 15:56:00,,0824.6,5.00,0.00,22.1,22.7,00.0,30.8,24.0,09.7,0000.0,0008.05,0002.77,0001.92
2023-03-06 15:57:00,,0824.5,5.03,0.00,22.2,22.9,00.0,30.9,24.1,09.7,0000.0,0008.04,0002.82,0001.92
2023-03-06 15:58:00,,0824.7,4.99,0.00,22.2,22.4,00.0,30.9,24.1,09.5,0000.0,0007.85,0002.89,0001.92
2023-03-06 15:59:00,,0824.5,4.96,0.00,22.2,21.9,00.0,30.9,24.0,09.2,0000.0,0007.95,0002.93,0001.90
